C/2010 L4 ( WISE )

Japanese version
Home page
Updated on September 3, 2011

---------------------------------------------------------------------

* Profile

Discovery Date June 15, 2010
Magnitude
Discoverer Wide Field Infrared Survey Explorer (NASA)

* Pictures

* Orbital Elements

Epoch 2010 Feb. 13.0 TT = JDT 2455240.5
T 2010 Feb. 23.63497 TT                                 MPC
q   2.8255354            (2000.0)            P               Q
z  +0.0125091      Peri.   95.76306     +0.23799607     +0.56018809
 +/-0.000000       Node   125.53887     -0.34314548     -0.71573546
e   0.9646550      Incl.  102.81900     +0.90863031     -0.41702764
From 90 observations 2010 June 15-Sept. 5, mean residual 0".8.

* Magnitudes Graph

        m1 = 11.8 + 5 log d + 10.0 log r

---------------------------------------------------------------------

The orbital elements are published on M.P.E.C. 2011-E18.
The magnitudes graphs are made with Comet for Windows.

---------------------------------------------------------------------

Copyright(C) Seiichi Yoshida (comet@aerith.net). All rights reserved.